TimeCST,TemperatureF,Dew PointF,Humidity,Sea Level PressureIn,VisibilityMPH,Wind Direction,Wind SpeedMPH,Gust SpeedMPH,PrecipitationIn,Events,Conditions,WindDirDegrees,DateUTC
12:15 AM,27.1,23.5,86,30.09,7.0,East,5.8,-,N/A,,Overcast,90,2012-12-28 06:15:00
12:35 AM,27.0,23.5,87,30.09,7.0,East,4.6,-,N/A,,Overcast,100,2012-12-28 06:35:00
12:55 AM,26.6,23.5,88,30.09,7.0,SE,3.5,-,N/A,,Overcast,130,2012-12-28 06:55:00
1:15 AM,27.3,23.9,87,30.09,7.0,SE,5.8,-,N/A,,Overcast,140,2012-12-28 07:15:00
1:35 AM,27.3,24.1,88,30.08,7.0,SSE,8.1,-,N/A,,Overcast,160,2012-12-28 07:35:00
1:55 AM,27.1,23.9,88,30.08,7.0,SSE,6.9,-,N/A,,Overcast,160,2012-12-28 07:55:00
2:15 AM,27.1,23.9,88,30.08,7.0,SSE,8.1,-,N/A,,Overcast,160,2012-12-28 08:15:00
2:35 AM,27.5,24.1,87,30.07,7.0,SSE,8.1,-,N/A,,Overcast,150,2012-12-28 08:35:00
2:55 AM,27.5,24.3,88,30.07,7.0,South,9.2,-,N/A,,Overcast,170,2012-12-28 08:55:00
3:15 AM,27.3,23.9,87,30.07,7.0,SSE,5.8,-,N/A,,Overcast,160,2012-12-28 09:15:00
3:35 AM,27.3,23.9,87,30.06,7.0,SSE,5.8,-,N/A,,Overcast,160,2012-12-28 09:35:00
3:55 AM,27.1,23.9,88,30.06,7.0,SSE,5.8,-,N/A,,Overcast,160,2012-12-28 09:55:00
4:15 AM,27.1,23.9,88,30.05,7.0,SSE,5.8,-,N/A,,Overcast,160,2012-12-28 10:15:00
4:35 AM,27.1,23.9,88,30.04,7.0,South,5.8,-,N/A,,Overcast,180,2012-12-28 10:35:00
4:55 AM,27.0,23.9,88,30.04,7.0,SSE,4.6,-,N/A,,Overcast,160,2012-12-28 10:55:00
5:15 AM,26.6,23.9,90,30.05,7.0,South,4.6,-,N/A,,Overcast,180,2012-12-28 11:15:00
5:35 AM,26.6,23.7,89,30.04,7.0,South,5.8,-,N/A,,Overcast,170,2012-12-28 11:35:00
5:55 AM,26.6,23.5,88,30.05,7.0,South,4.6,-,N/A,,Overcast,180,2012-12-28 11:55:00
6:15 AM,26.6,23.5,88,30.05,7.0,SSE,5.8,-,N/A,,Overcast,160,2012-12-28 12:15:00
6:35 AM,26.8,23.4,87,30.04,7.0,SSE,4.6,-,N/A,,Overcast,150,2012-12-28 12:35:00
6:55 AM,27.0,23.4,86,30.04,10.0,SE,6.9,-,N/A,,Overcast,140,2012-12-28 12:55:00
7:15 AM,27.0,23.4,86,30.05,7.0,SSE,4.6,-,N/A,,Overcast,150,2012-12-28 13:15:00
7:35 AM,27.0,23.4,86,30.05,7.0,SSE,5.8,-,N/A,,Overcast,150,2012-12-28 13:35:00
7:55 AM,27.1,23.7,87,30.04,7.0,SE,5.8,-,N/A,,Overcast,130,2012-12-28 13:55:00
8:15 AM,27.1,23.9,88,30.04,5.0,SE,5.8,-,N/A,,Overcast,130,2012-12-28 14:15:00
8:35 AM,27.3,23.9,87,30.05,3.0,ESE,6.9,-,N/A,Snow,Light Snow,120,2012-12-28 14:35:00
8:55 AM,27.3,24.1,88,30.04,1.8,ESE,8.1,-,N/A,Snow,Light Snow,120,2012-12-28 14:55:00
9:15 AM,27.5,24.8,90,30.05,1.2,SE,6.9,-,N/A,Snow,Light Snow,130,2012-12-28 15:15:00
9:35 AM,27.9,24.8,88,30.05,3.0,SE,5.8,-,N/A,Snow,Light Snow,140,2012-12-28 15:35:00
9:55 AM,28.4,24.8,86,30.05,5.0,SE,9.2,-,N/A,,Overcast,140,2012-12-28 15:55:00
10:15 AM,28.4,25.3,88,30.04,5.0,SE,9.2,-,N/A,,Overcast,130,2012-12-28 16:15:00
10:35 AM,28.4,25.3,88,30.03,5.0,SE,9.2,-,N/A,,Overcast,130,2012-12-28 16:35:00
10:55 AM,28.4,25.3,88,30.02,5.0,SE,9.2,-,N/A,,Overcast,140,2012-12-28 16:55:00
11:15 AM,28.4,25.3,88,30.01,5.0,SSE,8.1,-,N/A,,Overcast,150,2012-12-28 17:15:00
11:35 AM,28.4,25.3,88,30.00,4.0,SE,6.9,-,N/A,,Overcast,140,2012-12-28 17:35:00
11:55 AM,28.8,25.3,87,29.98,4.0,SE,9.2,-,N/A,,Overcast,140,2012-12-28 17:55:00
12:15 PM,28.8,25.5,88,29.96,4.0,SE,5.8,-,N/A,,Overcast,140,2012-12-28 18:15:00
12:35 PM,28.9,25.7,88,29.96,4.0,SSE,9.2,-,N/A,,Overcast,150,2012-12-28 18:35:00
12:55 PM,29.1,25.7,87,29.95,4.0,SSE,8.1,-,N/A,,Overcast,150,2012-12-28 18:55:00
1:15 PM,29.1,25.7,87,29.94,4.0,SE,8.1,-,N/A,,Overcast,140,2012-12-28 19:15:00
1:35 PM,29.1,25.7,87,29.94,4.0,SE,6.9,-,N/A,,Overcast,140,2012-12-28 19:35:00
1:55 PM,29.1,25.9,88,29.93,4.0,SE,6.9,-,N/A,,Overcast,130,2012-12-28 19:55:00
2:15 PM,29.1,26.1,88,29.93,4.0,SE,5.8,-,N/A,,Overcast,140,2012-12-28 20:15:00
2:35 PM,29.1,26.1,88,29.93,3.0,SE,5.8,-,N/A,,Overcast,140,2012-12-28 20:35:00
2:55 PM,29.1,26.1,88,29.93,2.5,SE,4.6,-,N/A,,Overcast,130,2012-12-28 20:55:00
3:15 PM,29.1,26.4,90,29.93,1.2,SSE,6.9,-,N/A,,Overcast,150,2012-12-28 21:15:00
3:35 PM,29.1,26.6,90,29.93,1.2,SSE,6.9,-,N/A,,Overcast,150,2012-12-28 21:35:00
3:55 PM,28.9,26.6,91,29.93,1.5,SSE,5.8,-,N/A,,Overcast,150,2012-12-28 21:55:00
4:15 PM,28.4,26.6,93,29.93,1.0,SSE,4.6,-,N/A,,Overcast,150,2012-12-28 22:15:00
4:35 PM,29.1,26.6,90,29.93,1.2,SSE,3.5,-,N/A,Snow,Light Snow,150,2012-12-28 22:35:00
4:55 PM,29.1,26.6,90,29.93,1.5,SSE,3.5,-,N/A,Snow,Light Snow,150,2012-12-28 22:55:00
5:15 PM,29.1,26.6,90,29.93,2.0,SSE,3.5,-,N/A,,Overcast,160,2012-12-28 23:15:00
5:35 PM,29.1,26.6,90,29.93,1.8,SE,3.5,-,N/A,Snow,Light Snow,140,2012-12-28 23:35:00
5:55 PM,29.1,26.6,90,29.93,1.8,SSE,3.5,-,N/A,,Overcast,150,2012-12-28 23:55:00
6:15 PM,29.1,26.6,90,29.93,1.8,SSE,4.6,-,N/A,,Overcast,150,2012-12-29 00:15:00
6:35 PM,29.1,26.6,90,29.93,1.8,SSE,3.5,-,N/A,,Overcast,150,2012-12-29 00:35:00
6:55 PM,29.1,26.6,90,29.92,1.8,Calm,Calm,-,N/A,,Overcast,0,2012-12-29 00:55:00
7:15 PM,29.1,26.6,90,29.92,1.8,Calm,Calm,-,N/A,Snow,Light Snow,0,2012-12-29 01:15:00
7:35 PM,29.1,26.6,90,29.92,1.5,Calm,Calm,-,N/A,,Overcast,0,2012-12-29 01:35:00
7:55 PM,29.1,26.6,90,29.91,1.8,Calm,Calm,-,N/A,,Overcast,0,2012-12-29 01:55:00
8:15 PM,29.1,26.6,90,29.90,1.8,Calm,Calm,-,N/A,,Overcast,0,2012-12-29 02:15:00
8:35 PM,29.1,26.6,90,29.89,1.2,Calm,Calm,-,N/A,,Overcast,0,2012-12-29 02:35:00
8:55 PM,29.1,26.6,90,29.89,1.2,Calm,Calm,-,N/A,,Overcast,0,2012-12-29 02:55:00
9:15 PM,29.1,26.6,90,29.89,1.2,Calm,Calm,-,N/A,,Overcast,0,2012-12-29 03:15:00
9:35 PM,29.1,26.6,90,29.89,1.0,Calm,Calm,-,N/A,,Overcast,0,2012-12-29 03:35:00
9:55 PM,29.1,26.6,90,29.88,1.0,Calm,Calm,-,N/A,,Overcast,0,2012-12-29 03:55:00
10:15 PM,29.1,26.6,90,29.88,1.0,Calm,Calm,-,N/A,,Overcast,0,2012-12-29 04:15:00
10:35 PM,29.1,26.6,90,29.88,1.0,Calm,Calm,-,N/A,,Overcast,0,2012-12-29 04:35:00
10:55 PM,29.3,26.8,90,29.87,1.2,Calm,Calm,-,N/A,,Overcast,0,2012-12-29 04:55:00
11:15 PM,29.1,26.6,90,29.87,1.5,Calm,Calm,-,N/A,,Overcast,0,2012-12-29 05:15:00
11:35 PM,29.1,26.6,90,29.87,1.5,Calm,Calm,-,N/A,,Overcast,0,2012-12-29 05:35:00
11:55 PM,29.1,26.6,90,29.87,1.5,Calm,Calm,-,N/A,,Overcast,0,2012-12-29 05:55:00